Weather History for Sydney, NW

Change the Weather History Date:

Thursday, October 3, 2013

  Actual Average Record
Temperature  
Mean Temperature 60 °F -  
Max Temperature 68 °F 72 °F 96 °F (2007)
Min Temperature 53 °F 56 °F 50 °F (2011)
Degree Days  
Heating Degree Days 4    
Growing Degree Days 10 (Base 50)    
Moisture  
Dew Point 39 °F    
Average Humidity 44    
Maximum Humidity 77    
Minimum Humidity 18    
Precipitation  
Precipitation 0.04 in 0.11 in - ()
Sea Level Pressure  
Sea Level Pressure 29.90 in    
Wind  
Wind Speed 17 mph ()    
Max Wind Speed 30 mph    
Max Gust Speed 38 mph    
Visibility 7.3 miles    
Events Rain    
Averages and records for this station are not official NWS values.
T = Trace of Precipitation, MM = Missing Value Source: Averaged Metar Reports

Daily Weather History Graph

Daily Weather History Graph

Search for Another Location

Airport:

Trip Planner

Search our weather history database for the weather conditions in past years. The results will help you decide how hot, cold, wet, or windy it might be!

Date:

Astronomy

Oct. 03, 2013 Rise Set
Actual Time 5:30 AM EST 5:59 PM EST
Civil Twilight 5:04 AM EST 6:24 PM EST
Nautical Twilight 4:35 AM EST 6:54 PM EST
Astronomical Twilight 4:05 AM EST 7:24 PM EST
Moon 4:05 AM EST (10/3) 4:16 PM EST (10/3)
Length of Visible Light 13h 19m
Length of Day
12h 29m
Waning Crescent, 4% of the Moon is Illuminated
Oct 3
Waning Crescent
Oct 5
New
Oct 12
First Quarter
Oct 19
Full
Oct 27
Last Quarter

Hourly Weather History & Observations

Time (EST) Temp. Dew Point Humidity Pressure Visibility Wind Dir Wind Speed Gust Speed Precip Events Conditions
12:00 AM 68 °F 36 °F 20% 29.75 in 25 mi North 12.7 mph - -   Partly Cloudy
12:00 AM 68.0 °F 37.4 °F 33% 29.74 in - North 12.7 mph - N/A   Clear
12:30 AM 68.0 °F 35.6 °F 30% 29.71 in - North 13.8 mph - N/A   Clear
1:00 AM 68 °F 35 °F 18% 29.71 in - North 13.8 mph - -  
1:00 AM 68.0 °F 35.6 °F 30% 29.71 in - North 13.8 mph - N/A   Clear
1:30 AM 66.2 °F 35.6 °F 32% 29.68 in - North 13.8 mph - N/A   Clear
2:00 AM 66 °F 35 °F 21% 29.70 in - North 11.5 mph - -  
2:00 AM 66.2 °F 35.6 °F 32% 29.68 in - North 11.5 mph - N/A   Clear
2:46 AM 66.2 °F 35.6 °F 32% 29.71 in - West 29.9 mph - N/A   Clear
3:00 AM 63 °F 39 °F 29% 29.73 in 25 mi WSW 23.0 mph - -   Partly Cloudy
3:00 AM 62.6 °F 39.2 °F 42% 29.71 in - WSW 23.0 mph 34.5 mph N/A   Clear
3:30 AM 62.6 °F 39.2 °F 42% 29.74 in - WSW 24.2 mph 35.7 mph N/A   Clear
4:00 AM 61 °F 38 °F 31% 29.76 in - WSW 26.5 mph - -  
4:00 AM 60.8 °F 39.2 °F 45% 29.74 in - WSW 26.5 mph 38.0 mph N/A   Clear
4:30 AM 60.8 °F 37.4 °F 42% 29.77 in - West 24.2 mph 35.7 mph N/A   Clear
5:00 AM 59 °F 37 °F 32% 29.78 in - WNW 17.3 mph - -  
5:00 AM 59.0 °F 37.4 °F 45% 29.77 in - WNW 17.3 mph - N/A   Clear
5:30 AM 59.0 °F 37.4 °F 45% 29.74 in - WNW 16.1 mph - N/A   Clear
6:00 AM 59 °F 37 °F 32% 29.78 in 19 mi West 18.4 mph - -   Scattered Clouds
6:00 AM 59.0 °F 37.4 °F 45% 29.77 in 6.2 mi West 18.4 mph - N/A   Mostly Cloudy
6:30 AM 59.0 °F 39.2 °F 48% 29.80 in 6.2 mi WSW 15.0 mph - N/A   Mostly Cloudy
7:00 AM 59 °F 37 °F 32% 29.83 in - WSW 18.4 mph - -  
7:00 AM 59.0 °F 37.4 °F 45% 29.83 in 6.2 mi WSW 18.4 mph - N/A   Mostly Cloudy
7:30 AM 60.8 °F 37.4 °F 42% 29.83 in 6.2 mi West 20.7 mph - N/A   Scattered Clouds
8:00 AM 61 °F 38 °F 30% 29.84 in - West 20.7 mph - -  
8:00 AM 60.8 °F 37.4 °F 42% 29.83 in 6.2 mi West 20.7 mph - N/A   Partly Cloudy
8:30 AM 60.8 °F 37.4 °F 42% 29.83 in 6.2 mi WSW 21.9 mph - N/A   Scattered Clouds
9:00 AM 64 °F 36 °F 24% 29.86 in 25 mi WSW 18.4 mph - -   Partly Cloudy
9:00 AM 64.4 °F 35.6 °F 34% 29.86 in 6.2 mi WSW 18.4 mph - N/A   Partly Cloudy
9:30 AM 62.6 °F 37.4 °F 39% 29.86 in 6.2 mi WSW 17.3 mph - N/A   Mostly Cloudy
10:00 AM 63 °F 41 °F 32% 29.88 in - SSW 17.3 mph - -  
10:00 AM 62.6 °F 41.0 °F 45% 29.86 in 6.2 mi SSW 17.3 mph - N/A   Mostly Cloudy
10:30 AM 60.8 °F 46.4 °F 59% 29.89 in 6.2 mi South 19.6 mph - N/A Rain Light Rain Showers
11:00 AM 58 °F 49 °F 65% 29.90 in - South 25.3 mph - -  
11:00 AM 59.0 °F 50.0 °F 72% 29.89 in 6.2 mi South 25.3 mph - N/A Rain Light Rain Showers
11:30 AM 57.2 °F 50.0 °F 77% 29.89 in 6.2 mi South 26.5 mph - N/A Rain Light Rain Showers
12:00 PM 59.0 °F 44.6 °F 59% 29.92 in 6.2 mi South 25.3 mph - N/A Rain Light Rain Showers
12:11 PM 57.2 °F 46.4 °F 67% 29.92 in 6.2 mi SSW 24.2 mph 35.7 mph N/A Rain Light Rain Showers
12:30 PM 57.2 °F 42.8 °F 59% 29.92 in 6.2 mi SSW 29.9 mph - N/A Rain Light Rain Showers
1:00 PM 56 °F 45 °F 57% 29.93 in - South 25.3 mph - -  
1:00 PM 55.4 °F 44.6 °F 67% 29.92 in 6.2 mi South 25.3 mph - N/A Rain Rain Showers
2:00 PM 59 °F 41 °F 40% 29.96 in - SW 17.3 mph - -  
2:00 PM 59.0 °F 41.0 °F 51% 29.95 in 6.2 mi SW 17.3 mph - N/A Rain Light Rain Showers
2:26 PM 60.8 °F 39.2 °F 45% 29.95 in 6.2 mi SSW 21.9 mph 33.4 mph N/A   Scattered Clouds
3:00 PM 62 °F 40 °F 33% 29.96 in 19 mi South 27.6 mph - -   Partly Cloudy
3:00 PM 62.6 °F 41.0 °F 45% 29.95 in 6.2 mi South 27.6 mph - N/A   Scattered Clouds
3:30 PM 60.8 °F 39.2 °F 45% 29.95 in 6.2 mi South 25.3 mph - N/A   Scattered Clouds
3:53 PM 60.8 °F 37.4 °F 42% 29.98 in 6.2 mi SW 24.2 mph - N/A   Mostly Cloudy
4:00 PM 60 °F 37 °F 30% 29.99 in - SW 21.9 mph - -  
4:00 PM 59.0 °F 37.4 °F 45% 29.98 in 6.2 mi SW 21.9 mph - N/A   Mostly Cloudy
4:30 PM 59.0 °F 33.8 °F 39% 29.98 in 6.2 mi WSW 13.8 mph - N/A   Scattered Clouds
5:00 PM 61 °F 38 °F 30% 30.01 in - SW 15.0 mph - -  
5:00 PM 60.8 °F 37.4 °F 42% 30.01 in 6.2 mi SW 15.0 mph - N/A   Scattered Clouds
5:30 PM 59.0 °F 39.2 °F 48% 30.01 in 6.2 mi SW 13.8 mph - N/A   Partly Cloudy
6:00 PM 58 °F 39 °F 37% 30.05 in 25 mi West 13.8 mph - -   Partly Cloudy
6:00 PM 57.2 °F 39.2 °F 51% 30.04 in 6.2 mi West 13.8 mph - N/A   Partly Cloudy
6:30 PM 57.2 °F 39.2 °F 51% 30.06 in 6.2 mi WSW 16.1 mph - N/A Rain Light Rain Showers
7:00 PM 56 °F 39 °F 41% 30.07 in - West 13.8 mph - -  
7:30 PM 55.4 °F 37.4 °F 51% 30.06 in 6.2 mi West 17.3 mph - N/A   Partly Cloudy
8:00 PM 54 °F 40 °F 47% 30.10 in - West 17.3 mph - -  
8:00 PM 55.4 °F 39.2 °F 54% 30.09 in 6.2 mi West 17.3 mph - N/A   Partly Cloudy
8:30 PM 55.4 °F 41.0 °F 58% 30.09 in 6.2 mi SSW 8.1 mph - N/A   Scattered Clouds
9:00 PM 54 °F 42 °F 53% 30.12 in 19 mi SW 8.1 mph - -   Partly Cloudy
9:00 PM 53.6 °F 41.0 °F 62% 30.09 in 6.2 mi SW 8.1 mph - N/A   Partly Cloudy
10:00 PM 54 °F 41 °F 51% 30.14 in - WSW 9.2 mph - -  
10:00 PM 53.6 °F 41.0 °F 62% 30.12 in - WSW 9.2 mph - N/A   Clear
10:30 PM 53.6 °F 41.0 °F 62% 30.12 in - West 6.9 mph - N/A   Clear
11:00 PM 53 °F 41 °F 53% 30.14 in - West 8.1 mph - -  
11:00 PM 53.6 °F 41.0 °F 62% 30.12 in 6.2 mi West 8.1 mph - N/A   Partly Cloudy
11:30 PM 53.6 °F 41.0 °F 62% 30.12 in - WSW 11.5 mph - N/A   Clear